TITAN 3C TRANSTAGE DEB, 1915

Orbit data source: Space-Track

TITAN 3C TRANSTAGE DEB, 1915 is space debris in LEO originally from a launch on Fri, 15 Oct 1965 UTC launched from the Air Force Eastern Test Range (AFETR). Debris objects in space refer to the collection of defunct objects orbiting the Earth. Examples of debris include non-operational satellites, rocket bodies, and fragments generated from explosions, collisions, or faulty payload assembly.

Loading next visibility...
Identifier
1915, 1965-082FZ
Orbit
LEO
Country
Flag of USUS
Related business
Manufacturer
Unknown
Mission
Spacecraft
Bus & Motor
Unknown
Mass
Unknown
Launch date (UTC)
1965-10-15 (61 years ago)
Launch vehicle
Unknown
Launch site
Air Force Eastern Test Range (AFETR)
Object type
Payload
Rocket body
Debris
Shape & HBR
Unknown shape, 0.1 m
Radar Cross Section
Medium (>0.1 m² and <1 m²)

Expand to show TLE details & history
Last TLE update: 1 day ago

TLE from 1 day ago
0 TITAN 3C TRANSTAGE DEB
1  1915U 65082FZ  26171.39582947  .00000296  00000-0  53479-4 0  9990
2  1915  31.8769 273.1806 0029065 306.4532  53.3430 14.58482481215892
Epoch: 2026-06-20T09:29Z
TLE epoch observation values (Epoch: 2026-06-20T09:29:59.666Z)
Latitude
Longitude
-137.92907°
Altitude
684.469 km
Speed
7.523 km/s
True Right ascension
18h 12m 43s
True Declination
0° 00' 00"
Sunlit
Object was in full shadow at epoch
Visualization orbit readout
Latitude
Unknown
Longitude
Unknown
Altitude
Unknown
Speed
Unknown
Apparent Right ascension
Unknown
Apparent Declination
Unknown
Sunlit
N/A
Visualization observer readout
Local Sidereal Time
01:55:54
Azimuth
Unknown
Elevation
Unknown
Doppler factor
Unknown
Orbital elements
Apogee altitude
722.282 km
Perigee altitude
681.127 km
Semi-major axis
7,079.841 km
Eccentricity
0.00291
Inclination
31.8769°
RAAN
273.1806°
Arg. of periapsis
306.4532°
True anomaly
53.61077°
Mean anomaly
53.343°
Eccentric anomaly
53.47683°
Mean motion
3.64341 °/min
Orbital period
98.81 mins
BSTAR
0.000053479

Documentation

Showing up to 5 results
|